EXS53VK EGBB-LGSM

Flight info

Callsign EXS53VK
Flight time 3h 32m
Altitude 37000
Route COWLY Q70 BIG UL9 KONAN DCT KOK DCT KOMOB DCT KRH DCT UTABA DCT MOMUK DCT GEDSO DCT VEKEN DCT KANIN DCT NEMEK DCT TUPUS DCT OSLUD DCT MEDUX UM867 KOGAT DCT ERANA UL737 TSL UN130 MES L609 PIPEN Y94 ORMOS
Aircraft B738/M-SDE2E3FGHIRWXY/LB1

Departure

Time 2026-05-05 10:12
Airport Birmingham Airport (EGBB)

Arrival

Time 2026-05-05 13:44
Airport Samos Airport (LGSM)
Time Latitude Longitude Altitude Speed Heading
2026-05-05 09:53 52.45004 -1.73578 320 ft 0 kts 56°
2026-05-05 10:04 52.44996 -1.73597 321 ft 4 kts 56°
2026-05-05 10:04 52.44982 -1.73633 319 ft 4 kts 69°
2026-05-05 10:04 52.44979 -1.73672 319 ft 4 kts 117°
2026-05-05 10:04 52.44992 -1.73698 321 ft 0 kts 146°
2026-05-05 10:07 52.44989 -1.73694 321 ft 3 kts 146°
2026-05-05 10:08 52.44945 -1.73645 322 ft 10 kts 149°
2026-05-05 10:08 52.44880 -1.73658 320 ft 10 kts 197°
2026-05-05 10:08 52.44816 -1.73689 322 ft 9 kts 196°
2026-05-05 10:08 52.44755 -1.73719 321 ft 9 kts 203°
2026-05-05 10:09 52.44697 -1.73713 321 ft 9 kts 145°
2026-05-05 10:09 52.44647 -1.73656 321 ft 9 kts 146°
2026-05-05 10:09 52.44598 -1.73602 322 ft 8 kts 146°
2026-05-05 10:09 52.44550 -1.73550 322 ft 8 kts 146°
2026-05-05 10:10 52.44505 -1.73499 322 ft 8 kts 146°
2026-05-05 10:10 52.44461 -1.73450 322 ft 8 kts 146°
2026-05-05 10:10 52.44417 -1.73404 322 ft 7 kts 157°
2026-05-05 10:10 52.44372 -1.73429 321 ft 7 kts 228°
2026-05-05 10:11 52.44344 -1.73494 323 ft 7 kts 236°
2026-05-05 10:11 52.44319 -1.73557 323 ft 5 kts 236°
2026-05-05 10:11 52.44318 -1.73615 320 ft 6 kts 312°
2026-05-05 10:11 52.44353 -1.73655 323 ft 6 kts 326°
2026-05-05 10:12 52.44440 -1.73752 322 ft 39 kts 326°
2026-05-05 10:12 52.44863 -1.74220 325 ft 106 kts 326°
2026-05-05 10:12 52.45631 -1.75064 351 ft 159 kts 330°
2026-05-05 10:12 52.46573 -1.76117 984 ft 164 kts 327°
2026-05-05 10:13 52.47520 -1.77161 1858 ft 166 kts 327°
2026-05-05 10:13 52.48530 -1.78307 2304 ft 192 kts 327°
2026-05-05 10:13 52.49732 -1.79484 2653 ft 210 kts 343°
2026-05-05 10:13 52.51179 -1.79398 3234 ft 216 kts 21°
2026-05-05 10:14 52.52438 -1.77818 3485 ft 246 kts 55°
2026-05-05 10:14 52.53041 -1.75129 4069 ft 259 kts 84°
2026-05-05 10:14 52.53067 -1.72140 4863 ft 265 kts 91°
2026-05-05 10:14 52.52987 -1.69079 5621 ft 270 kts 99°
2026-05-05 10:15 52.52258 -1.66255 6415 ft 274 kts 129°
2026-05-05 10:15 52.50920 -1.64027 7207 ft 276 kts 137°
2026-05-05 10:15 52.49491 -1.61913 7879 ft 284 kts 138°
2026-05-05 10:15 52.47999 -1.59754 8641 ft 288 kts 139°
2026-05-05 10:16 52.46480 -1.57564 9424 ft 290 kts 139°
2026-05-05 10:16 52.44947 -1.55346 10101 ft 297 kts 139°
2026-05-05 10:16 52.43362 -1.53046 10480 ft 315 kts 139°
2026-05-05 10:16 52.41661 -1.50571 10679 ft 337 kts 139°
2026-05-05 10:17 52.39863 -1.47950 11028 ft 352 kts 139°
2026-05-05 10:17 52.38021 -1.45261 11690 ft 356 kts 139°
2026-05-05 10:17 52.36167 -1.42553 12479 ft 358 kts 139°
2026-05-05 10:17 52.34303 -1.39832 13204 ft 361 kts 139°
2026-05-05 10:18 52.32442 -1.37116 13855 ft 366 kts 139°
2026-05-05 10:18 52.30532 -1.34332 14518 ft 368 kts 139°
2026-05-05 10:18 52.28622 -1.31549 15209 ft 370 kts 140°
2026-05-05 10:18 52.26690 -1.28739 15864 ft 372 kts 139°
2026-05-05 10:19 52.24761 -1.25935 16637 ft 371 kts 139°
2026-05-05 10:19 52.22829 -1.23131 17314 ft 373 kts 139°
2026-05-05 10:19 52.20884 -1.20311 17939 ft 376 kts 139°
2026-05-05 10:19 52.18920 -1.17468 18528 ft 379 kts 139°
2026-05-05 10:20 52.16954 -1.14624 19068 ft 382 kts 140°
2026-05-05 10:20 52.14991 -1.11790 19622 ft 383 kts 140°
2026-05-05 10:20 52.12992 -1.08905 20169 ft 386 kts 140°
2026-05-05 10:20 52.10969 -1.05991 20673 ft 389 kts 140°
2026-05-05 10:21 52.08933 -1.03063 21187 ft 392 kts 140°
2026-05-05 10:21 52.06884 -1.00119 21707 ft 395 kts 140°
2026-05-05 10:21 52.04819 -0.97154 22216 ft 397 kts 140°
2026-05-05 10:21 52.02740 -0.94175 22689 ft 401 kts 140°
2026-05-05 10:22 52.00642 -0.91159 23147 ft 404 kts 139°
2026-05-05 10:22 51.98759 -0.87744 23636 ft 409 kts 127°
2026-05-05 10:22 51.97278 -0.83791 24088 ft 411 kts 121°
2026-05-05 10:22 51.95872 -0.79741 24503 ft 414 kts 121°
2026-05-05 10:23 51.94463 -0.75662 24875 ft 416 kts 121°
2026-05-05 10:23 51.93056 -0.71612 25258 ft 419 kts 122°
2026-05-05 10:23 51.91615 -0.67499 25638 ft 421 kts 122°
2026-05-05 10:23 51.90159 -0.63377 26019 ft 423 kts 123°
2026-05-05 10:24 51.88687 -0.59230 26394 ft 426 kts 123°
2026-05-05 10:24 51.87201 -0.55065 26762 ft 428 kts 123°
2026-05-05 10:24 51.85707 -0.50889 27107 ft 430 kts 123°
2026-05-05 10:24 51.84203 -0.46692 27469 ft 432 kts 123°
2026-05-05 10:25 51.82690 -0.42480 27811 ft 435 kts 123°
2026-05-05 10:25 51.81166 -0.38244 28128 ft 437 kts 124°
2026-05-05 10:25 51.79655 -0.34051 28510 ft 438 kts 123°
2026-05-05 10:25 51.78121 -0.29797 28918 ft 438 kts 124°
2026-05-05 10:26 51.76582 -0.25540 29233 ft 440 kts 124°
2026-05-05 10:26 51.75033 -0.21263 29514 ft 443 kts 124°
2026-05-05 10:26 51.73474 -0.16966 29808 ft 445 kts 124°
2026-05-05 10:26 51.71909 -0.12653 30116 ft 446 kts 123°
2026-05-05 10:27 51.70508 -0.08166 30459 ft 449 kts 118°
2026-05-05 10:27 51.69669 -0.05128 30709 ft 448 kts 117°
2026-05-05 10:27 51.68441 -0.00529 31069 ft 447 kts 116°
2026-05-05 10:27 51.66834 0.05605 31370 ft 450 kts 116°
2026-05-05 10:28 51.65620 0.10245 31650 ft 450 kts 116°
2026-05-05 10:28 51.64401 0.14881 32021 ft 448 kts 116°
2026-05-05 10:28 51.63181 0.19492 32389 ft 447 kts 116°
2026-05-05 10:28 51.61960 0.24080 32686 ft 447 kts 116°
2026-05-05 10:29 51.61147 0.27123 32868 ft 447 kts 116°
2026-05-05 10:29 51.59917 0.31714 33150 ft 447 kts 116°
2026-05-05 10:29 51.58696 0.36258 33478 ft 446 kts 116°
2026-05-05 10:29 51.57465 0.40829 33790 ft 445 kts 116°
2026-05-05 10:30 51.56232 0.45397 34026 ft 446 kts 116°
2026-05-05 10:30 51.54996 0.49969 34207 ft 447 kts 116°
2026-05-05 10:30 51.53345 0.56057 34353 ft 451 kts 116°
2026-05-05 10:30 51.52499 0.59173 34502 ft 450 kts 116°
2026-05-05 10:31 51.51248 0.63774 34781 ft 449 kts 116°
2026-05-05 10:31 51.50018 0.68293 35003 ft 448 kts 116°
2026-05-05 10:31 51.47498 0.77512 34992 ft 452 kts 116°
2026-05-05 10:32 51.44987 0.86674 34974 ft 442 kts 116°
2026-05-05 10:32 51.42532 0.95594 34968 ft 435 kts 116°
2026-05-05 10:33 51.40081 1.04455 34973 ft 434 kts 116°
2026-05-05 10:33 51.37644 1.13234 34978 ft 435 kts 116°
2026-05-05 10:34 51.35180 1.22076 34975 ft 436 kts 117°
2026-05-05 10:34 51.32704 1.30933 34970 ft 437 kts 117°
2026-05-05 10:35 51.30215 1.39803 34966 ft 438 kts 117°
2026-05-05 10:35 51.27731 1.48621 34958 ft 439 kts 117°
2026-05-05 10:36 51.25218 1.57507 34964 ft 440 kts 117°
2026-05-05 10:36 51.22693 1.66404 34962 ft 440 kts 117°
2026-05-05 10:37 51.20158 1.75303 34959 ft 441 kts 117°
2026-05-05 10:37 51.17617 1.84192 34959 ft 441 kts 117°
2026-05-05 10:38 51.15086 1.93017 34937 ft 440 kts 117°
2026-05-05 10:38 51.12541 2.01879 34940 ft 440 kts 117°
2026-05-05 10:39 51.10085 2.10797 35019 ft 442 kts 116°
2026-05-05 10:39 51.07621 2.19862 35103 ft 451 kts 116°
2026-05-05 10:40 51.05106 2.29055 35361 ft 454 kts 116°
2026-05-05 10:40 51.03861 2.33584 35595 ft 453 kts 116°
2026-05-05 10:40 51.02598 2.38161 35806 ft 452 kts 117°
2026-05-05 10:41 51.01331 2.42739 36007 ft 452 kts 117°
2026-05-05 10:41 51.00063 2.47311 36163 ft 453 kts 117°
2026-05-05 10:41 50.98790 2.51889 36343 ft 453 kts 117°
2026-05-05 10:41 50.97517 2.56458 36541 ft 453 kts 117°
2026-05-05 10:42 50.94967 2.65584 36865 ft 453 kts 117°
2026-05-05 10:42 50.93686 2.70157 36927 ft 454 kts 117°
2026-05-05 10:43 50.91126 2.79264 36925 ft 455 kts 117°
2026-05-05 10:43 50.88553 2.88390 36917 ft 452 kts 117°
2026-05-05 10:44 50.85990 2.97446 36917 ft 450 kts 117°
2026-05-05 10:44 50.83427 3.06460 36907 ft 448 kts 117°
2026-05-05 10:45 50.80886 3.15367 36912 ft 447 kts 117°
2026-05-05 10:45 50.78325 3.24306 36908 ft 446 kts 117°
2026-05-05 10:46 50.75758 3.33235 36904 ft 447 kts 118°
2026-05-05 10:46 50.73180 3.42167 36908 ft 447 kts 118°
2026-05-05 10:47 50.70590 3.51109 36912 ft 449 kts 118°
2026-05-05 10:47 50.68000 3.60016 36905 ft 450 kts 118°
2026-05-05 10:48 50.65378 3.69001 36902 ft 452 kts 118°
2026-05-05 10:48 50.62740 3.78009 36895 ft 453 kts 118°
2026-05-05 10:49 50.60090 3.87021 36907 ft 454 kts 118°
2026-05-05 10:49 50.57429 3.96041 36900 ft 454 kts 118°
2026-05-05 10:50 50.54783 4.04976 36896 ft 453 kts 118°
2026-05-05 10:50 50.52121 4.13929 36901 ft 451 kts 119°
2026-05-05 10:51 50.49466 4.22830 36904 ft 449 kts 119°
2026-05-05 10:51 50.46816 4.31677 36910 ft 447 kts 119°
2026-05-05 10:52 50.44188 4.40419 36911 ft 445 kts 119°
2026-05-05 10:52 50.41547 4.49171 36910 ft 443 kts 119°
2026-05-05 10:53 50.38906 4.57894 36912 ft 443 kts 119°
2026-05-05 10:53 50.36261 4.66599 36901 ft 442 kts 119°
2026-05-05 10:54 50.33610 4.75292 36892 ft 443 kts 120°
2026-05-05 10:54 50.30967 4.83929 36891 ft 443 kts 120°
2026-05-05 10:55 50.28300 4.92612 36885 ft 443 kts 120°
2026-05-05 10:55 50.25629 5.01282 36878 ft 443 kts 120°
2026-05-05 10:56 50.22953 5.09936 36870 ft 442 kts 120°
2026-05-05 10:56 50.20276 5.18561 36868 ft 441 kts 120°
2026-05-05 10:57 50.17618 5.27101 36871 ft 440 kts 120°
2026-05-05 10:57 50.14938 5.35679 36859 ft 440 kts 120°
2026-05-05 10:58 50.12183 5.44161 36864 ft 438 kts 122°
2026-05-05 10:58 50.09327 5.52524 36847 ft 437 kts 122°
2026-05-05 10:59 50.06488 5.60812 36854 ft 437 kts 122°
2026-05-05 10:59 50.03642 5.69143 36859 ft 436 kts 122°
2026-05-05 11:00 50.00796 5.77472 36847 ft 436 kts 122°
2026-05-05 11:00 49.97948 5.85791 36838 ft 435 kts 122°
2026-05-05 11:01 49.95100 5.94079 36836 ft 435 kts 122°
2026-05-05 11:01 49.92247 6.02356 36867 ft 435 kts 122°
2026-05-05 11:02 49.89383 6.10629 36849 ft 439 kts 122°
2026-05-05 11:02 49.86481 6.18990 36854 ft 442 kts 122°
2026-05-05 11:03 49.83558 6.27389 36845 ft 443 kts 122°
2026-05-05 11:03 49.80634 6.35767 36822 ft 440 kts 123°
2026-05-05 11:04 49.77749 6.44004 36840 ft 437 kts 123°
2026-05-05 11:04 49.74860 6.52223 36859 ft 434 kts 123°
2026-05-05 11:05 49.71968 6.60419 36843 ft 434 kts 123°
2026-05-05 11:05 49.69077 6.68591 36836 ft 432 kts 123°
2026-05-05 11:06 49.66200 6.76698 36826 ft 430 kts 123°
2026-05-05 11:06 49.63346 6.84712 36845 ft 429 kts 123°
2026-05-05 11:07 49.60468 6.92772 36861 ft 429 kts 123°
2026-05-05 11:07 49.57575 7.00843 36872 ft 431 kts 123°
2026-05-05 11:08 49.54663 7.08943 36868 ft 433 kts 123°
2026-05-05 11:08 49.51748 7.17028 36872 ft 437 kts 123°
2026-05-05 11:09 49.48786 7.25219 36863 ft 438 kts 123°
2026-05-05 11:09 49.45812 7.33418 36855 ft 439 kts 123°
2026-05-05 11:10 49.42832 7.41610 36869 ft 439 kts 123°
2026-05-05 11:10 49.39861 7.49749 36868 ft 439 kts 123°
2026-05-05 11:11 49.36876 7.57901 36856 ft 438 kts 124°
2026-05-05 11:11 49.33890 7.66028 36848 ft 437 kts 124°
2026-05-05 11:12 49.30908 7.74120 36855 ft 436 kts 124°
2026-05-05 11:12 49.27925 7.82192 36862 ft 435 kts 124°
2026-05-05 11:13 49.24961 7.90182 36857 ft 434 kts 124°
2026-05-05 11:13 49.21979 7.98198 36860 ft 433 kts 124°
2026-05-05 11:14 49.18997 8.06194 36856 ft 432 kts 124°
2026-05-05 11:14 49.16012 8.14172 36861 ft 432 kts 124°
2026-05-05 11:15 49.13023 8.22133 36855 ft 433 kts 124°
2026-05-05 11:15 49.10041 8.30055 36861 ft 433 kts 124°
2026-05-05 11:16 49.07035 8.38018 36847 ft 433 kts 124°
2026-05-05 11:16 49.04023 8.45975 36854 ft 433 kts 124°
2026-05-05 11:17 49.01000 8.53933 36859 ft 434 kts 125°
2026-05-05 11:17 48.97324 8.61051 36851 ft 424 kts 143°
2026-05-05 11:18 48.92814 8.66718 36851 ft 424 kts 144°
2026-05-05 11:18 48.88229 8.72371 36852 ft 425 kts 144°
2026-05-05 11:19 48.83655 8.78053 36831 ft 425 kts 144°
2026-05-05 11:19 48.79088 8.83751 36845 ft 424 kts 144°
2026-05-05 11:20 48.74565 8.89393 36852 ft 424 kts 144°
2026-05-05 11:20 48.70008 8.95063 36854 ft 423 kts 144°
2026-05-05 11:21 48.65453 9.00718 36866 ft 425 kts 144°
2026-05-05 11:21 48.60877 9.06382 36851 ft 425 kts 144°
2026-05-05 11:22 48.56310 9.12024 36857 ft 424 kts 144°
2026-05-05 11:22 48.51775 9.17613 36844 ft 423 kts 144°
2026-05-05 11:23 48.47217 9.23216 36846 ft 423 kts 144°
2026-05-05 11:23 48.42660 9.28804 36847 ft 422 kts 144°
2026-05-05 11:24 48.38099 9.34383 36851 ft 422 kts 144°
2026-05-05 11:24 48.33572 9.39908 36849 ft 422 kts 144°
2026-05-05 11:25 48.29009 9.45464 36847 ft 422 kts 144°
2026-05-05 11:25 48.24444 9.51009 36833 ft 422 kts 144°
2026-05-05 11:26 48.19868 9.56554 36855 ft 423 kts 144°
2026-05-05 11:26 48.15307 9.62068 36858 ft 425 kts 144°
2026-05-05 11:27 48.10699 9.67626 36860 ft 426 kts 144°
2026-05-05 11:27 48.06067 9.73200 36861 ft 428 kts 144°
2026-05-05 11:28 48.01415 9.78785 36854 ft 430 kts 145°
2026-05-05 11:28 47.96744 9.84380 36855 ft 430 kts 145°
2026-05-05 11:29 47.92068 9.89970 36854 ft 431 kts 145°
2026-05-05 11:29 47.87411 9.95521 36865 ft 432 kts 145°
2026-05-05 11:30 47.83167 10.01924 36857 ft 440 kts 129°
2026-05-05 11:30 47.80099 10.09865 36866 ft 444 kts 122°
2026-05-05 11:31 47.77224 10.18015 36827 ft 445 kts 122°
2026-05-05 11:31 47.74334 10.26121 36863 ft 444 kts 122°
2026-05-05 11:32 47.71435 10.34136 36855 ft 444 kts 122°
2026-05-05 11:32 47.68499 10.42191 36857 ft 444 kts 122°
2026-05-05 11:33 47.65553 10.50239 36849 ft 444 kts 122°
2026-05-05 11:33 47.62604 10.58275 36841 ft 444 kts 122°
2026-05-05 11:34 47.59650 10.66304 36849 ft 444 kts 122°
2026-05-05 11:34 47.56705 10.74283 36848 ft 445 kts 122°
2026-05-05 11:35 47.53732 10.82313 36844 ft 445 kts 123°
2026-05-05 11:35 47.50745 10.90357 36848 ft 446 kts 123°
2026-05-05 11:36 47.47748 10.98405 36813 ft 447 kts 123°
2026-05-05 11:36 47.44744 11.06447 36823 ft 447 kts 123°
2026-05-05 11:37 47.41756 11.14420 36824 ft 447 kts 123°
2026-05-05 11:37 47.38747 11.22425 36847 ft 446 kts 123°
2026-05-05 11:38 47.35728 11.30435 36838 ft 447 kts 123°
2026-05-05 11:38 47.32708 11.38425 36861 ft 447 kts 123°
2026-05-05 11:39 47.29664 11.46452 36864 ft 450 kts 123°
2026-05-05 11:39 47.26623 11.54446 36848 ft 451 kts 123°
2026-05-05 11:40 47.23547 11.62511 36861 ft 452 kts 123°
2026-05-05 11:40 47.20465 11.70569 36856 ft 451 kts 123°
2026-05-05 11:41 47.17381 11.78608 36892 ft 452 kts 123°
2026-05-05 11:41 47.14301 11.86601 36886 ft 453 kts 123°
2026-05-05 11:42 47.11191 11.94661 36919 ft 454 kts 124°
2026-05-05 11:42 47.08061 12.02749 36909 ft 457 kts 123°
2026-05-05 11:43 47.04916 12.10843 36908 ft 457 kts 124°
2026-05-05 11:43 47.01774 12.18913 36960 ft 455 kts 124°
2026-05-05 11:44 46.98652 12.26900 36965 ft 455 kts 123°
2026-05-05 11:44 46.95504 12.34935 36977 ft 454 kts 123°
2026-05-05 11:45 46.92358 12.42940 36978 ft 453 kts 123°
2026-05-05 11:45 46.89216 12.50913 36984 ft 451 kts 123°
2026-05-05 11:46 46.86097 12.58805 36970 ft 451 kts 123°
2026-05-05 11:46 46.82954 12.66733 36991 ft 451 kts 124°
2026-05-05 11:47 46.79802 12.74659 36971 ft 451 kts 123°
2026-05-05 11:47 46.76647 12.82576 36969 ft 451 kts 123°
2026-05-05 11:48 46.71924 12.94373 37015 ft 452 kts 123°
2026-05-05 11:48 46.68732 13.02317 37011 ft 455 kts 123°
2026-05-05 11:49 46.65524 13.10282 36998 ft 456 kts 123°
2026-05-05 11:49 46.62311 13.18238 36993 ft 456 kts 123°
2026-05-05 11:50 46.59103 13.26160 37031 ft 454 kts 124°
2026-05-05 11:50 46.55912 13.34011 37018 ft 454 kts 124°
2026-05-05 11:51 46.52694 13.41910 36982 ft 454 kts 124°
2026-05-05 11:51 46.49474 13.49782 37015 ft 453 kts 123°
2026-05-05 11:52 46.46257 13.57648 37028 ft 454 kts 124°
2026-05-05 11:52 46.42980 13.65397 37025 ft 454 kts 127°
2026-05-05 11:53 46.39279 13.72793 37020 ft 453 kts 130°
2026-05-05 11:53 46.35477 13.80085 37008 ft 454 kts 130°
2026-05-05 11:54 46.31698 13.87418 37014 ft 455 kts 129°
2026-05-05 11:54 46.27963 13.94734 37017 ft 456 kts 129°
2026-05-05 11:55 46.24201 14.02111 37026 ft 456 kts 129°
2026-05-05 11:55 46.20431 14.09490 37017 ft 457 kts 129°
2026-05-05 11:56 46.16653 14.16861 37026 ft 457 kts 129°
2026-05-05 11:56 46.12870 14.24220 37025 ft 457 kts 129°
2026-05-05 11:57 46.09107 14.31522 37028 ft 457 kts 129°
2026-05-05 11:57 46.05310 14.38869 37019 ft 457 kts 130°
2026-05-05 11:58 46.01515 14.46194 37016 ft 456 kts 129°
2026-05-05 11:58 45.97720 14.53501 37024 ft 456 kts 129°
2026-05-05 11:59 45.93924 14.60789 37023 ft 455 kts 129°
2026-05-05 11:59 45.90153 14.68013 37010 ft 455 kts 129°
2026-05-05 12:00 45.86362 14.75254 37022 ft 453 kts 130°
2026-05-05 12:00 45.82569 14.82481 37032 ft 453 kts 130°
2026-05-05 12:01 45.78771 14.89700 37025 ft 454 kts 130°
2026-05-05 12:01 45.74985 14.96876 37034 ft 455 kts 130°
2026-05-05 12:02 45.71168 15.04095 37034 ft 455 kts 130°
2026-05-05 12:02 45.67347 15.11304 37034 ft 455 kts 130°
2026-05-05 12:03 45.63513 15.18517 37021 ft 456 kts 130°
2026-05-05 12:03 45.59694 15.25688 37044 ft 457 kts 130°
2026-05-05 12:04 45.55803 15.32865 37041 ft 457 kts 132°
2026-05-05 12:04 45.51689 15.39767 37014 ft 457 kts 134°
2026-05-05 12:05 45.47523 15.46640 37025 ft 458 kts 133°
2026-05-05 12:05 45.43414 15.53488 37028 ft 458 kts 133°
2026-05-05 12:06 45.39289 15.60394 37013 ft 458 kts 133°
2026-05-05 12:06 45.35164 15.67286 37008 ft 457 kts 133°
2026-05-05 12:07 45.31048 15.74146 37015 ft 456 kts 133°
2026-05-05 12:07 45.26955 15.80949 37026 ft 455 kts 133°
2026-05-05 12:08 45.22841 15.87771 37017 ft 454 kts 133°
2026-05-05 12:08 45.18794 15.94642 37020 ft 454 kts 131°
2026-05-05 12:09 45.14825 16.01603 37027 ft 454 kts 131°
2026-05-05 12:09 45.10857 16.08555 37025 ft 454 kts 131°
2026-05-05 12:10 45.06871 16.15490 37013 ft 454 kts 132°
2026-05-05 12:10 45.02898 16.22366 37011 ft 454 kts 132°
2026-05-05 12:11 44.98893 16.29278 36993 ft 455 kts 132°
2026-05-05 12:11 44.94879 16.36189 37007 ft 455 kts 132°
2026-05-05 12:12 44.90855 16.43099 37016 ft 456 kts 132°
2026-05-05 12:12 44.86842 16.49976 37024 ft 458 kts 132°
2026-05-05 12:13 44.82788 16.56906 37001 ft 459 kts 132°
2026-05-05 12:13 44.78718 16.63845 37013 ft 460 kts 132°
2026-05-05 12:14 44.74633 16.70793 37011 ft 461 kts 132°
2026-05-05 12:14 44.70539 16.77741 37010 ft 462 kts 132°
2026-05-05 12:15 44.66458 16.84648 37009 ft 462 kts 132°
2026-05-05 12:15 44.62344 16.91596 37008 ft 463 kts 133°
2026-05-05 12:16 44.58227 16.98531 37018 ft 463 kts 133°
2026-05-05 12:16 44.54103 17.05461 37020 ft 463 kts 133°
2026-05-05 12:17 44.50004 17.12333 37009 ft 463 kts 133°
2026-05-05 12:17 44.45870 17.19245 37009 ft 463 kts 133°
2026-05-05 12:18 44.41739 17.26130 37016 ft 461 kts 133°
2026-05-05 12:18 44.37612 17.32998 37028 ft 461 kts 133°
2026-05-05 12:19 44.33504 17.39824 37035 ft 463 kts 133°
2026-05-05 12:19 44.29349 17.46706 37029 ft 464 kts 133°
2026-05-05 12:20 44.25188 17.53582 37045 ft 465 kts 133°
2026-05-05 12:20 44.21010 17.60470 37034 ft 466 kts 133°
2026-05-05 12:21 44.16845 17.67318 37026 ft 467 kts 133°
2026-05-05 12:21 44.12639 17.74216 37022 ft 467 kts 133°
2026-05-05 12:22 44.11105 17.77832 38113 ft 420 kts 105°
2026-05-05 12:22 44.09960 17.81631 37359 ft 439 kts 127°
2026-05-05 12:22 44.07933 17.84911 36580 ft 456 kts 139°
2026-05-05 12:22 44.05592 17.87928 36596 ft 461 kts 137°
2026-05-05 12:23 44.01296 17.94648 36808 ft 467 kts 134°
2026-05-05 12:23 43.99161 17.98045 37018 ft 465 kts 134°
2026-05-05 12:23 43.97053 18.01386 37008 ft 467 kts 133°
2026-05-05 12:24 43.92757 18.08182 37019 ft 470 kts 134°
2026-05-05 12:24 43.88437 18.15012 37032 ft 472 kts 134°
2026-05-05 12:25 43.84097 18.21863 37016 ft 473 kts 134°
2026-05-05 12:25 43.79747 18.28716 37022 ft 474 kts 134°
2026-05-05 12:26 43.75421 18.35513 37020 ft 474 kts 134°
2026-05-05 12:26 43.71067 18.42339 37023 ft 473 kts 134°
2026-05-05 12:27 43.66712 18.49150 37030 ft 472 kts 134°
2026-05-05 12:27 43.62360 18.55939 37038 ft 472 kts 134°
2026-05-05 12:28 43.58043 18.62659 37062 ft 471 kts 134°
2026-05-05 12:28 43.53698 18.69407 37048 ft 470 kts 134°
2026-05-05 12:29 43.49354 18.76141 37042 ft 470 kts 134°
2026-05-05 12:29 43.45106 18.82969 37054 ft 469 kts 131°
2026-05-05 12:30 43.41050 18.90020 37063 ft 470 kts 130°
2026-05-05 12:30 43.37027 18.97053 37063 ft 472 kts 130°
2026-05-05 12:31 43.32936 19.04122 37062 ft 474 kts 130°
2026-05-05 12:31 43.28804 19.11206 37056 ft 475 kts 130°
2026-05-05 12:32 43.24657 19.18290 37056 ft 477 kts 130°
2026-05-05 12:32 43.20497 19.25380 37040 ft 477 kts 130°
2026-05-05 12:33 43.16355 19.32426 37052 ft 478 kts 130°
2026-05-05 12:33 43.12173 19.39521 37049 ft 479 kts 130°
2026-05-05 12:34 43.07980 19.46619 37069 ft 480 kts 130°
2026-05-05 12:34 43.03779 19.53714 37055 ft 480 kts 130°
2026-05-05 12:35 42.99596 19.60760 37048 ft 480 kts 130°
2026-05-05 12:35 42.95390 19.67830 37062 ft 480 kts 130°
2026-05-05 12:36 42.91176 19.74894 37064 ft 480 kts 131°
2026-05-05 12:36 42.86956 19.81955 37056 ft 480 kts 130°
2026-05-05 12:37 42.82737 19.88994 37074 ft 479 kts 130°
2026-05-05 12:37 42.78548 19.95970 37063 ft 479 kts 130°
2026-05-05 12:38 42.74321 20.02992 37071 ft 480 kts 130°
2026-05-05 12:38 42.70088 20.09992 37075 ft 479 kts 131°
2026-05-05 12:39 42.65847 20.16984 37047 ft 479 kts 130°
2026-05-05 12:39 42.61612 20.23952 37061 ft 479 kts 130°
2026-05-05 12:40 42.57403 20.30874 37061 ft 479 kts 130°
2026-05-05 12:40 42.53147 20.37852 37067 ft 481 kts 130°
2026-05-05 12:41 42.48862 20.44859 37072 ft 484 kts 130°
2026-05-05 12:41 42.44550 20.51894 37069 ft 487 kts 130°
2026-05-05 12:42 42.40241 20.58909 37071 ft 489 kts 130°
2026-05-05 12:42 42.35882 20.65986 37071 ft 490 kts 130°
2026-05-05 12:43 42.31512 20.73066 37062 ft 490 kts 130°
2026-05-05 12:43 42.27138 20.80136 37073 ft 490 kts 130°
2026-05-05 12:44 42.22796 20.87137 37083 ft 490 kts 130°
2026-05-05 12:44 42.18423 20.94172 37075 ft 488 kts 130°
2026-05-05 12:45 42.14060 21.01176 37066 ft 488 kts 130°
2026-05-05 12:45 42.09599 21.08012 37068 ft 483 kts 136°
2026-05-05 12:46 42.04718 21.14213 37073 ft 482 kts 138°
2026-05-05 12:46 41.99805 21.20256 37034 ft 481 kts 138°
2026-05-05 12:47 41.94908 21.26359 37062 ft 481 kts 137°
2026-05-05 12:47 41.90034 21.32494 37055 ft 480 kts 137°
2026-05-05 12:48 41.85980 21.37603 37063 ft 481 kts 137°
2026-05-05 12:48 41.81084 21.43759 37055 ft 484 kts 137°
2026-05-05 12:49 41.75358 21.50936 37047 ft 486 kts 137°
2026-05-05 12:49 41.70400 21.57133 37056 ft 489 kts 137°
2026-05-05 12:50 41.66259 21.62299 37051 ft 491 kts 137°
2026-05-05 12:50 41.61258 21.68527 37064 ft 492 kts 137°
2026-05-05 12:51 41.56240 21.74761 37065 ft 493 kts 137°
2026-05-05 12:51 41.51214 21.80990 37073 ft 493 kts 137°
2026-05-05 12:52 41.46224 21.87163 37049 ft 492 kts 137°
2026-05-05 12:52 41.41210 21.93351 37052 ft 490 kts 137°
2026-05-05 12:53 41.36211 21.99507 37051 ft 489 kts 137°
2026-05-05 12:53 41.31217 22.05643 37053 ft 488 kts 137°
2026-05-05 12:54 41.23777 22.14762 37045 ft 486 kts 137°
2026-05-05 12:55 41.18808 22.20838 37038 ft 485 kts 137°
2026-05-05 12:55 41.13890 22.26939 37018 ft 482 kts 135°
2026-05-05 12:56 41.09172 22.33248 37026 ft 482 kts 134°
2026-05-05 12:56 41.04476 22.39607 37036 ft 484 kts 134°
2026-05-05 12:57 40.99766 22.45919 37049 ft 486 kts 134°
2026-05-05 12:57 40.94980 22.52277 37016 ft 489 kts 134°
2026-05-05 12:58 40.90166 22.58644 37019 ft 491 kts 134°
2026-05-05 12:58 40.85330 22.65026 37018 ft 492 kts 134°
2026-05-05 12:59 40.80513 22.71371 37023 ft 493 kts 134°
2026-05-05 12:59 40.75652 22.77761 37009 ft 493 kts 134°
2026-05-05 13:00 40.68366 22.87314 37003 ft 492 kts 134°
2026-05-05 13:01 40.58710 22.99925 37026 ft 489 kts 134°
2026-05-05 13:01 40.53879 23.06216 37017 ft 488 kts 135°
2026-05-05 13:02 40.49051 23.12487 37044 ft 487 kts 134°
2026-05-05 13:02 40.44230 23.18737 37026 ft 487 kts 134°
2026-05-05 13:03 40.39406 23.24977 37010 ft 487 kts 135°
2026-05-05 13:03 40.34619 23.31156 37025 ft 486 kts 135°
2026-05-05 13:04 40.29802 23.37361 37027 ft 485 kts 135°
2026-05-05 13:04 40.24986 23.43551 37043 ft 485 kts 134°
2026-05-05 13:05 40.20159 23.49744 37035 ft 486 kts 135°
2026-05-05 13:05 40.15361 23.55885 37032 ft 486 kts 135°
2026-05-05 13:06 40.10519 23.62071 37030 ft 487 kts 135°
2026-05-05 13:06 40.05668 23.68253 37042 ft 488 kts 135°
2026-05-05 13:07 40.00804 23.74440 37039 ft 489 kts 135°
2026-05-05 13:07 39.95963 23.80584 37045 ft 490 kts 135°
2026-05-05 13:08 39.91079 23.86771 37043 ft 490 kts 135°
2026-05-05 13:08 39.86184 23.92958 37047 ft 490 kts 135°
2026-05-05 13:09 39.81289 23.99133 37042 ft 490 kts 135°
2026-05-05 13:09 39.76422 24.05259 37050 ft 490 kts 135°
2026-05-05 13:10 39.71522 24.11413 37056 ft 490 kts 135°
2026-05-05 13:10 39.66615 24.17564 37049 ft 490 kts 135°
2026-05-05 13:11 39.61708 24.23702 37053 ft 490 kts 135°
2026-05-05 13:11 39.56839 24.29780 37042 ft 489 kts 135°
2026-05-05 13:12 39.51937 24.35886 37051 ft 489 kts 135°
2026-05-05 13:12 39.47038 24.41977 37064 ft 488 kts 135°
2026-05-05 13:13 39.42133 24.48063 37054 ft 488 kts 135°
2026-05-05 13:13 39.37258 24.54098 37059 ft 488 kts 135°
2026-05-05 13:14 39.32349 24.60163 37056 ft 488 kts 135°
2026-05-05 13:14 39.27436 24.66221 37052 ft 488 kts 136°
2026-05-05 13:15 39.22521 24.72269 37053 ft 488 kts 136°
2026-05-05 13:15 39.17604 24.78307 37061 ft 488 kts 136°
2026-05-05 13:16 39.12705 24.84311 36846 ft 493 kts 136°
2026-05-05 13:16 39.10220 24.87352 36577 ft 492 kts 136°
2026-05-05 13:16 39.07745 24.90378 36324 ft 490 kts 136°
2026-05-05 13:17 39.05275 24.93394 36071 ft 489 kts 136°
2026-05-05 13:17 39.02804 24.96408 35787 ft 489 kts 136°
2026-05-05 13:17 39.00335 24.99417 35188 ft 490 kts 135°
2026-05-05 13:17 38.97864 25.02425 34660 ft 490 kts 135°
2026-05-05 13:18 38.95385 25.05440 34076 ft 491 kts 135°
2026-05-05 13:18 38.92929 25.08425 33380 ft 493 kts 135°
2026-05-05 13:18 38.90437 25.11451 32777 ft 493 kts 135°
2026-05-05 13:18 38.87954 25.14460 32348 ft 489 kts 135°
2026-05-05 13:19 38.85490 25.17444 31901 ft 485 kts 135°
2026-05-05 13:19 38.83046 25.20401 31467 ft 482 kts 135°
2026-05-05 13:19 38.80616 25.23339 31036 ft 478 kts 135°
2026-05-05 13:19 38.78204 25.26252 30610 ft 475 kts 135°
2026-05-05 13:20 38.75834 25.29111 30193 ft 472 kts 135°
2026-05-05 13:20 38.73450 25.31985 29703 ft 469 kts 135°
2026-05-05 13:20 38.71083 25.34836 29248 ft 466 kts 135°
2026-05-05 13:20 38.68730 25.37667 28776 ft 462 kts 135°
2026-05-05 13:21 38.66400 25.40467 28343 ft 458 kts 135°
2026-05-05 13:21 38.64088 25.43244 27897 ft 454 kts 135°
2026-05-05 13:21 38.61794 25.45997 27457 ft 451 kts 135°
2026-05-05 13:21 38.59514 25.48730 27037 ft 447 kts 135°
2026-05-05 13:22 38.57253 25.51438 26613 ft 444 kts 135°
2026-05-05 13:22 38.55008 25.54124 26189 ft 441 kts 135°
2026-05-05 13:22 38.52778 25.56791 25765 ft 438 kts 135°
2026-05-05 13:22 38.50591 25.59403 25361 ft 435 kts 135°
2026-05-05 13:23 38.48387 25.62034 24949 ft 433 kts 135°
2026-05-05 13:23 38.46195 25.64649 24546 ft 430 kts 135°
2026-05-05 13:23 38.44015 25.67247 24112 ft 428 kts 135°
2026-05-05 13:23 38.41844 25.69833 23706 ft 426 kts 135°
2026-05-05 13:24 38.39685 25.72402 23199 ft 424 kts 136°
2026-05-05 13:24 38.37535 25.74956 22763 ft 420 kts 136°
2026-05-05 13:24 38.35383 25.77456 22334 ft 417 kts 137°
2026-05-05 13:24 38.33253 25.79869 21942 ft 413 kts 137°
2026-05-05 13:25 38.31105 25.82279 21536 ft 410 kts 137°
2026-05-05 13:25 38.28975 25.84665 21136 ft 406 kts 137°
2026-05-05 13:25 38.26863 25.87032 20747 ft 403 kts 137°
2026-05-05 13:25 38.24767 25.89386 20358 ft 400 kts 137°
2026-05-05 13:26 38.22689 25.91722 19971 ft 397 kts 137°
2026-05-05 13:26 38.20625 25.94043 19589 ft 395 kts 137°
2026-05-05 13:26 38.18576 25.96346 19220 ft 392 kts 137°
2026-05-05 13:26 38.16536 25.98640 18827 ft 390 kts 137°
2026-05-05 13:27 38.14535 26.00888 18446 ft 388 kts 137°
2026-05-05 13:27 38.12518 26.03152 18021 ft 386 kts 137°
2026-05-05 13:27 38.10512 26.05403 17597 ft 383 kts 137°
2026-05-05 13:27 38.08521 26.07634 17203 ft 380 kts 137°
2026-05-05 13:28 38.06545 26.09847 16830 ft 377 kts 137°
2026-05-05 13:28 38.04586 26.12039 16454 ft 374 kts 137°
2026-05-05 13:28 38.02641 26.14213 16073 ft 371 kts 137°
2026-05-05 13:28 38.00713 26.16368 15706 ft 368 kts 137°
2026-05-05 13:29 37.98796 26.18508 15341 ft 366 kts 137°
2026-05-05 13:29 37.96920 26.20602 14982 ft 363 kts 137°
2026-05-05 13:29 37.95027 26.22712 14620 ft 361 kts 137°
2026-05-05 13:29 37.93146 26.24809 14260 ft 359 kts 136°
2026-05-05 13:30 37.91275 26.26892 13910 ft 357 kts 136°
2026-05-05 13:30 37.89412 26.28965 13504 ft 356 kts 136°
2026-05-05 13:30 37.87558 26.31026 13111 ft 353 kts 136°
2026-05-05 13:30 37.85717 26.33072 12734 ft 351 kts 136°
2026-05-05 13:31 37.83889 26.35102 12369 ft 348 kts 136°
2026-05-05 13:31 37.82075 26.37114 12010 ft 346 kts 136°
2026-05-05 13:31 37.80307 26.39075 11651 ft 344 kts 136°
2026-05-05 13:31 37.78514 26.41061 11300 ft 341 kts 136°
2026-05-05 13:32 37.76735 26.43032 10948 ft 339 kts 136°
2026-05-05 13:32 37.74965 26.44991 10597 ft 337 kts 136°
2026-05-05 13:32 37.73208 26.46934 10364 ft 332 kts 136°
2026-05-05 13:32 37.71494 26.48826 10214 ft 323 kts 136°
2026-05-05 13:33 37.69821 26.50673 10065 ft 315 kts 136°
2026-05-05 13:33 37.68177 26.52489 9760 ft 314 kts 136°
2026-05-05 13:33 37.66538 26.54298 9444 ft 312 kts 136°
2026-05-05 13:33 37.64934 26.56067 9134 ft 310 kts 136°
2026-05-05 13:34 37.63317 26.57850 8844 ft 308 kts 136°
2026-05-05 13:34 37.61710 26.59620 8537 ft 306 kts 136°
2026-05-05 13:34 37.60112 26.61379 8232 ft 304 kts 136°
2026-05-05 13:34 37.58521 26.63130 7941 ft 302 kts 136°
2026-05-05 13:35 37.56940 26.64869 7638 ft 301 kts 136°
2026-05-05 13:35 37.55367 26.66598 7375 ft 298 kts 136°
2026-05-05 13:35 37.53823 26.68292 7260 ft 289 kts 136°
2026-05-05 13:35 37.52343 26.69913 7134 ft 275 kts 136°
2026-05-05 13:36 37.50949 26.71446 6949 ft 265 kts 134°
2026-05-05 13:36 37.49720 26.73139 6633 ft 259 kts 122°
2026-05-05 13:36 37.48747 26.75012 6338 ft 252 kts 114°
2026-05-05 13:36 37.47953 26.76932 6059 ft 243 kts 110°
2026-05-05 13:37 37.47273 26.78846 5771 ft 236 kts 107°
2026-05-05 13:37 37.46688 26.80741 5477 ft 229 kts 103°
2026-05-05 13:37 37.46207 26.82610 5212 ft 221 kts 99°
2026-05-05 13:37 37.45839 26.84454 4943 ft 212 kts 91°
2026-05-05 13:38 37.45907 26.86200 4683 ft 196 kts 67°
2026-05-05 13:38 37.46170 26.87036 4574 ft 187 kts 54°
2026-05-05 13:38 37.46938 26.88265 4354 ft 174 kts 36°
2026-05-05 13:38 37.47914 26.89115 4160 ft 169 kts 25°
2026-05-05 13:39 37.49006 26.89652 3947 ft 170 kts
2026-05-05 13:39 37.50204 26.89752 3653 ft 173 kts
2026-05-05 13:39 37.51398 26.89827 3415 ft 170 kts
2026-05-05 13:39 37.52570 26.89901 3191 ft 168 kts
2026-05-05 13:40 37.53721 26.89970 2993 ft 168 kts
2026-05-05 13:40 37.54852 26.90041 2783 ft 156 kts
2026-05-05 13:40 37.55895 26.90119 2594 ft 144 kts
2026-05-05 13:40 37.56892 26.90204 2411 ft 144 kts
2026-05-05 13:41 37.57875 26.90295 2243 ft 139 kts
2026-05-05 13:41 37.58840 26.90386 2101 ft 140 kts
2026-05-05 13:41 37.59805 26.90371 1970 ft 140 kts 342°
2026-05-05 13:41 37.60717 26.89951 1869 ft 141 kts 340°
2026-05-05 13:42 37.61639 26.89537 1809 ft 141 kts 340°
2026-05-05 13:42 37.62558 26.89126 1796 ft 140 kts 340°
2026-05-05 13:42 37.63465 26.88721 1795 ft 140 kts 340°
2026-05-05 13:42 37.64387 26.88310 1797 ft 141 kts 340°
2026-05-05 13:43 37.65327 26.87892 1662 ft 144 kts 340°
2026-05-05 13:43 37.66274 26.87471 1407 ft 144 kts 338°
2026-05-05 13:43 37.67220 26.87077 1105 ft 146 kts 349°
2026-05-05 13:43 37.68212 26.87366 845 ft 152 kts 31°
2026-05-05 13:44 37.68885 26.88434 525 ft 164 kts 62°
2026-05-05 13:44 37.69006 26.89906 140 ft 176 kts 95°
2026-05-05 13:44 37.68774 26.91180 43 ft 117 kts 202°
2026-05-05 13:44 37.68708 26.91373 24 ft 0 kts 17°
2026-05-05 13:45 37.68709 26.91373 23 ft 0 kts 17°